Yaogan 43-01-04

operational
NORAD ID: 60461 Int'l Des: 2024-148 Owner: ZZB Country: CN Constellation: yaogan
LEOCIRCULAR

About Yaogan 43-01-04

Description loading...

Live Position

Loading 3D Globe...

Upcoming Passes

Altitude History

Altitude vs Time

uPlot chart will show altitude changes over time

Two-Line Element Set

1 60461U 24148D 26049.81674301 .00008288 00000-0 29689-3 0 9990
2 60461 34.9990 179.7356 0002462 197.8637 162.1993 15.28006005 84152
Epoch: Feb 18, 2026 • Age: 12 hours

Current Status

Altitude 478.6 km
Velocity 7.63 km/s
Sub-Earth Point 11.07°N, 82.11°E
Launch Date Aug 16, 2024
Age 1.5 years
Type military

Technical Details

Classification Payload
Mass 300.00 kg
Dry Mass 300.00 kg
Total Mass 300.00 kg
Length 2.50 m
Diameter 2.50 m
Span 5.00 m
Shape Box + 2 Pan
Manufacturer SAST
Phase Status In Orbit
Owner/State ZZB/CN

Large Constellations

Loading constellations...